Flag for U.S.A. Weather past 2 weeks in Daly City, California, U.S.A.

Now
72 °F

Scattered clouds.


Feels Like: 77 °F
Forecast: 61 / 68 °F
Wind: 16 mph from West

Location: San Francisco International Airport

Current Time: Aug 3, 2015 at 2:59:56 PM

Latest Report: Aug 3, 2015 at 1:56 PM


Visibility: 10 mi

Pressure: 29.97 "Hg

Humidity: 52%

Dew point: 53 °F

Location of Daly CityLocation

Historic Weather in Daly City — Graph

°F

Daly City temperature yesterday

Maximum temperature yesterday: 71 °F (at 2:56 PM)
Minimum temperature yesterday: 62 °F (at 4:56 AM)
Average temperature yesterday: 65 °F

Past Weeks' High & Low Weather Summary

 TemperatureHumidityPressure
High87 °F (Jul 19, 2:56 PM)93% (Jul 29, 5:56 AM)30.13 "Hg (Jul 29, 5:56 AM)
Low57 °F (Jul 27, 4:56 AM)30% (Jul 28, 1:56 PM)29.82 "Hg (Jul 28, 6:56 PM)
Average66 °F71%29.97 "Hg
* Reported Jul 19 1:56 PM — Aug 3 1:56 PM, Daly City, Weather by CustomWeather, © 2015

Note: Actual official high and low records may vary slightly from our data, if they occured in-between our weather recording intervals... More about our weather records

Advertising

Daly City weather history for previous 24 hours

 ConditionsComfort  
Time TempWeatherWind HumidityBarometerVisibility
1:56 PM
Mon, Aug 3
72 °FScattered clouds.16 mph52%29.97 "Hg10 mi
12:56 PM71 °FScattered clouds.15 mph53%29.98 "Hg10 mi
11:56 AM69 °FScattered clouds.14 mph57%29.98 "Hg10 mi
10:56 AM69 °FScattered clouds.9 mph57%29.98 "Hg10 mi
9:56 AM68 °FBroken clouds.13 mph59%29.98 "Hg10 mi
8:56 AM65 °FPartly sunny.13 mph63%29.97 "Hg10 mi
7:56 AM64 °FOvercast.10 mph68%29.97 "Hg10 mi
6:56 AM64 °FOvercast.10 mph68%29.96 "Hg10 mi
5:56 AM64 °FOvercast.9 mph70%29.95 "Hg10 mi
4:56 AM63 °FOvercast.7 mph73%29.95 "Hg10 mi
3:56 AM64 °FPassing clouds.9 mph73%29.94 "Hg10 mi
2:56 AM64 °FPassing clouds.12 mph75%29.94 "Hg10 mi
1:56 AM64 °FPassing clouds.10 mph78%29.94 "Hg10 mi
12:56 AM63 °FPassing clouds.10 mph78%29.93 "Hg10 mi
11:56 PM
Sun, Aug 2
63 °FPassing clouds.13 mph78%29.93 "Hg10 mi
10:56 PM63 °FPassing clouds.10 mph78%29.93 "Hg10 mi
9:56 PM64 °FPassing clouds.12 mph75%29.93 "Hg10 mi
8:56 PM65 °FScattered clouds.13 mph70%29.91 "Hg10 mi
7:56 PM66 °FScattered clouds.12 mph68%29.91 "Hg10 mi
6:56 PM67 °FScattered clouds.16 mph66%29.91 "Hg10 mi
5:56 PM69 °FScattered clouds.17 mph61%29.92 "Hg10 mi
4:56 PM70 °FScattered clouds.21 mph59%29.92 "Hg10 mi
3:56 PM70 °FPartly sunny.20 mph59%29.93 "Hg10 mi
2:56 PM71 °FPartly sunny.18 mph59%29.95 "Hg10 mi
Weather by CustomWeather, © 2015

See weather overviewHow to use our weather pages